Regional Weather Roundup
Issued by NWS

Home | Current Version | Previous Version | Graphics & Text | Print | Product List | Glossary On
Versions: 1 2 3 4 5 6 7 8 9 10 11 12 13 14 15 16 17 18 19 20 21 22 23 24 25 26 27 28 29 30 31 32 33 34 35 36 37 38 39 40 41 42 43 44 45 46 47 48 49 50
000
ASUS43 KLSX 021107
RWRMO

WEATHER SUMMARY FOR MISSOURI
NATIONAL WEATHER SERVICE SPRINGFIELD MO
600 AM CDT TUE SEP 02 2014

NOTE: "FAIR" INDICATES FEW OR NO CLOUDS BELOW 12,000 FEET WITH NO
       SIGNIFICANT WEATHER AND/OR OBSTRUCTIONS TO VISIBILITY.
       CURRENT SKY AND/OR WEATHER CONDITIONS ARE NOT AVAILABLE FOR
       CHILLICOTHE AND FARMINGTON.

MOZ001>031-035>038-043-044-053-054-021200-
...NORTHERN AND WESTERN MISSOURI...

CITY           SKY/WX    TMP DP  RH WIND       PRES   REMARKS
KANSAS CTY INT MOCLDY    65  65 100 CALM      29.92S FOG
KANSAS C DTWN  CLOUDY    70  68  93 CALM      29.91R FOG
LEE`S SUMMIT   CLOUDY    70  69  97 CALM      29.93R FOG
ST JOSEPH      CLOUDY    60  60 100 CALM      29.91R FOG
CHILLICOTHE      N/A     64  63  96 CALM      29.91F
KIRKSVILLE     FOG       65  64  97 CALM      29.90F VSB 1/4

$$
MOZ066>068-077>081-088>096-101>105-021200-
...SOUTHWEST MISSOURI...

CITY           SKY/WX    TMP DP  RH WIND       PRES   REMARKS
SPRINGFIELD    LGT RAIN  68  65  90 E3        29.97R
JOPLIN         CLOUDY    69  67  93 SW8       29.97R

$$
MOZ032>034-039>042-045>050-055>058-069>072-021200-
...CENTRAL MISSOURI...

CITY           SKY/WX    TMP DP  RH WIND       PRES   REMARKS
COLUMBIA       CLOUDY    70  69  97 CALM      29.93R
JEFFERSON CITY CLOUDY    71  69  93 NW3       29.92R
ROLLA            N/A    N/A N/A N/A MISG      29.92R
SEDALIA        CLOUDY    72  69  90 CALM      29.92F
WHITEMAN AFB   CLOUDY    69  68  97 N2        29.91S
OSAGE BEACH    CLOUDY    72  68  88 SW5       29.93R

$$
MOZ051-052-059>065-021200-
...EAST CENTRAL MISSOURI...

CITY           SKY/WX    TMP DP  RH WIND       PRES   REMARKS
ST LOUIS INTL  CLOUDY    71  68  90 S8        29.91R
SPIRIT OF STL  CLOUDY    69  67  93 CALM      29.90R
ST CHARLES     CLOUDY    69  68  96 CALM      29.90R

$$
MOZ072>076-082>087-097>100-106>115-021200-
...SOUTH CENTRAL AND SOUTHEAST MISSOURI...

CITY           SKY/WX    TMP DP  RH WIND       PRES   REMARKS
CAPE GIRARDEAU MOCLDY    76  73  91 SW9       29.95R
FARMINGTON     CLOUDY    73  72  94 CALM      29.97R
POPLAR BLUFF   MOCLDY    75  71  87 SW7       29.95R
WEST PLAINS    LGT RAIN  68  65  90 W6        30.04R

$$



USA.gov is the U.S. government's official web portal to all federal, state and local government web resources and services.